Theta_e
314 315 315 314 314 315 316 316 315 316 316 316 316 316 316 316 316 317 317 317 317 317 318 319 319 318 320 322 320 318 318 327 332 335 334 334 334 333 334 334 333 336 338 339 339 340 340 340 339 338 337 334 331 333 335 334 332 335 336 336 337 336 335 333 334 336 336 336 335 334 334 332 332 332 331 331 331 331 332 332 332 332 331 329 328 329
315 316 316 314 314 315 318 321 321 319 318 318 317 316 317 316 316 318 317 317 319 321 319 320 320 318 321 321 319 318 318 325 332 335 333 334 333 332 333 333 332 335 339 341 340 340 340 340 339 337 336 332 328 330 331 327 328 333 336 336 337 336 335 334 333 335 336 336 335 334 333 331 332 332 331 331 331 331 332 331 332 332 331 331 331 332
316 316 315 314 315 316 317 320 322 321 320 320 318 317 318 318 317 319 320 317 319 322 321 320 320 320 324 323 321 320 317 322 331 335 333 333 333 332 331 331 331 333 339 342 340 340 340 340 339 337 335 332 328 328 328 325 327 333 336 336 336 336 335 335 334 335 335 336 336 336 334 332 333 333 332 333 332 331 332 332 332 332 332 332 331 332
316 315 315 314 316 317 318 319 321 322 321 321 319 318 318 319 317 318 321 318 317 322 322 321 322 324 327 324 322 320 316 318 329 335 334 333 333 331 330 330 330 332 337 339 339 339 339 339 339 336 334 331 328 328 328 324 325 329 333 335 336 336 335 335 336 336 336 336 336 336 335 334 334 333 333 333 332 332 332 331 331 332 332 331 331 331
316 315 315 315 315 316 318 319 321 321 322 322 321 319 320 320 318 317 319 320 323 325 326 324 322 327 327 322 322 320 317 318 322 330 333 333 332 331 331 331 330 332 334 336 337 337 338 338 338 336 332 328 327 328 327 321 323 326 329 334 335 335 335 335 336 337 336 335 336 335 335 334 334 333 333 333 332 332 332 331 331 331 331 330 330 330
316 316 316 315 315 315 315 317 319 319 321 324 325 322 321 321 319 318 317 319 322 322 325 323 319 326 329 320 320 320 318 319 317 320 326 330 333 331 332 332 331 333 332 333 335 335 336 337 337 336 331 328 327 328 326 323 325 325 327 332 334 334 335 334 335 336 335 335 336 336 335 335 334 332 332 332 332 332 331 331 330 330 330 329 328 328
316 317 317 316 315 315 314 315 316 319 322 323 324 323 322 321 319 318 316 316 318 319 323 322 318 324 327 321 321 320 318 319 319 319 319 324 331 332 331 332 333 334 332 332 335 334 335 336 335 334 331 329 328 327 325 326 328 326 326 330 333 335 335 335 335 336 335 336 336 336 335 334 333 332 332 331 331 331 330 330 330 329 329 329 329 328
317 318 318 318 317 315 314 314 316 320 322 322 322 321 319 319 318 318 316 315 318 321 323 322 318 317 318 321 324 320 318 318 318 320 318 317 324 331 331 331 332 333 332 333 334 334 334 334 332 331 330 329 328 327 325 327 330 329 327 329 332 335 336 335 335 335 336 336 336 335 335 334 333 332 332 331 331 330 328 329 330 328 328 329 328 327
319 319 319 319 318 316 316 317 319 320 320 321 321 319 318 317 317 317 316 317 319 320 319 319 317 314 316 325 325 317 319 323 322 324 324 320 322 328 332 333 335 334 333 334 334 333 333 332 330 330 330 329 328 327 325 327 332 333 330 329 332 334 335 335 334 335 336 336 335 335 334 334 333 332 332 332 331 330 329 328 330 328 327 327 326 325
319 319 318 318 318 318 318 319 319 319 319 320 320 319 318 316 318 318 318 318 318 318 318 319 317 314 319 327 325 320 324 328 328 328 328 326 326 329 331 333 336 336 335 335 335 333 333 334 334 333 331 330 329 328 326 326 332 336 333 329 331 333 334 335 334 335 336 336 335 334 333 334 333 332 332 331 330 331 330 328 328 328 327 326 326 327
316 317 318 318 318 318 319 320 319 318 318 318 318 317 317 317 319 321 321 318 316 320 320 319 318 315 316 323 326 327 329 330 330 330 329 329 328 331 332 332 334 334 334 334 334 333 333 334 337 335 333 332 330 328 328 327 331 336 335 330 330 331 333 335 335 335 336 335 335 334 334 333 333 333 332 331 330 330 330 328 327 327 327 328 329 329
315 316 318 318 317 318 319 319 318 318 317 316 317 316 317 319 318 318 320 317 316 322 321 315 316 315 314 322 330 331 331 331 331 330 329 329 329 330 332 332 333 333 334 333 332 333 334 335 337 336 334 332 331 329 328 328 331 336 336 334 332 331 332 335 335 335 336 335 335 334 333 333 332 332 331 331 330 328 328 328 327 327 328 329 330 330
315 316 317 318 318 317 318 318 317 316 316 315 317 318 317 317 317 317 318 318 319 323 321 315 314 314 318 327 331 332 332 331 331 328 327 328 328 330 332 332 332 333 335 336 335 334 333 333 334 335 334 333 332 331 330 331 333 336 336 335 334 332 332 334 335 336 336 335 334 334 333 332 332 331 330 330 329 328 327 327 328 327 329 331 330 330
314 315 315 316 319 317 317 318 316 316 317 316 317 319 319 317 317 318 318 318 319 319 318 317 315 316 325 332 333 333 332 330 330 329 327 327 328 330 333 334 334 333 335 337 335 333 330 328 328 329 331 331 331 331 332 333 335 336 336 336 336 334 332 334 335 336 335 335 333 333 333 332 332 331 330 329 329 329 327 326 327 328 330 331 329 329
316 318 317 316 317 318 318 318 317 317 317 318 317 319 320 318 316 318 318 317 319 322 323 320 317 322 332 338 335 332 330 329 331 332 331 331 330 331 332 333 333 332 333 334 333 332 331 328 327 328 328 329 330 330 330 333 335 335 335 335 335 334 332 333 334 334 334 333 332 332 332 331 331 330 329 329 329 329 328 327 328 328 329 329 328 329
316 318 318 316 317 317 318 318 318 317 316 318 317 315 318 320 318 317 318 318 320 328 328 322 324 329 334 336 333 330 330 331 332 332 332 331 330 330 330 330 330 329 329 330 330 330 330 329 328 329 328 327 329 330 331 332 334 334 335 336 335 334 334 334 334 333 332 332 332 332 331 330 330 329 328 328 328 329 329 329 329 329 328 328 327 327
316 320 319 315 316 317 318 318 317 316 318 319 316 314 318 321 319 316 320 321 319 324 324 322 332 334 330 332 332 330 332 331 330 331 330 329 328 328 329 329 329 329 328 328 329 329 329 329 329 328 328 327 328 330 332 332 332 334 336 336 335 335 335 335 334 331 330 330 331 331 330 330 329 329 328 328 329 330 330 329 329 329 329 328 327 326
319 322 322 316 316 316 317 318 316 316 317 316 316 317 317 317 317 315 317 319 319 322 320 320 331 334 332 334 333 330 334 332 330 330 329 328 328 327 328 328 328 328 327 328 328 328 329 329 329 327 327 327 327 328 331 330 330 332 334 335 333 333 334 334 333 331 331 330 330 330 329 328 329 330 330 330 331 331 330 330 330 331 330 329 329 328
318 318 321 318 317 318 317 316 316 316 315 315 316 317 318 320 319 314 314 319 321 323 319 318 327 332 331 333 331 329 334 332 329 329 328 328 328 326 326 327 326 326 327 327 328 328 328 328 328 327 326 328 328 329 330 329 329 331 332 333 332 331 332 333 332 332 331 330 329 328 327 327 329 330 331 331 331 331 330 330 330 330 330 329 329 328
319 320 322 322 317 318 317 316 319 318 316 316 315 315 320 323 322 318 317 320 322 323 321 321 328 332 329 329 329 329 330 330 329 329 328 327 326 326 325 325 325 325 325 326 327 327 327 326 326 327 328 329 329 330 329 327 327 330 331 332 332 332 332 332 331 330 330 329 329 327 325 327 329 330 329 329 330 330 330 330 329 329 329 329 328 328
319 321 324 324 320 318 317 317 320 320 317 317 316 316 317 319 320 321 320 319 319 323 325 325 328 331 329 327 328 329 328 329 329 328 327 326 325 324 324 324 325 326 325 325 326 327 327 327 327 328 330 330 330 330 330 328 325 328 330 331 332 332 331 330 329 329 328 327 327 325 324 326 329 330 328 327 329 330 329 329 329 328 328 328 327 325
320 322 324 325 320 318 318 318 317 318 317 317 316 317 317 318 320 320 321 321 318 320 327 332 332 331 329 326 326 328 328 328 328 327 326 326 325 324 324 324 325 326 325 325 326 326 327 327 328 328 329 330 330 330 330 329 328 328 329 330 331 331 331 330 329 329 328 328 327 325 324 324 327 329 327 326 329 330 329 329 329 327 326 325 322 320
325 325 323 322 320 318 318 317 317 319 317 317 317 316 316 318 318 319 324 327 322 321 327 333 334 331 327 326 325 325 327 327 327 326 325 324 324 323 323 323 324 324 325 325 325 326 326 327 328 328 328 329 329 329 330 330 330 330 328 329 330 331 330 330 329 329 329 329 328 325 324 324 327 328 326 326 329 329 328 328 326 324 321 317 318 322
324 323 321 320 320 320 319 317 317 317 316 317 319 318 317 316 316 320 330 335 331 327 327 329 330 329 327 326 325 324 325 326 325 325 324 323 323 323 322 323 323 322 323 324 324 324 325 326 327 327 327 328 327 328 328 329 329 329 329 329 330 330 330 329 329 329 329 329 328 325 324 325 327 328 327 327 328 327 326 324 321 321 319 315 320 326
323 325 327 323 320 321 321 319 321 323 322 320 321 323 321 317 320 323 329 335 332 326 326 331 332 329 328 327 326 324 324 325 324 323 323 322 322 322 322 321 321 321 321 322 322 322 322 324 324 325 326 326 326 326 326 327 328 328 328 329 330 330 330 329 327 326 327 328 327 326 325 324 326 328 327 326 326 326 326 324 321 322 321 318 323 327
324 326 329 327 325 326 324 322 326 328 327 324 323 325 323 321 326 328 328 333 331 325 328 333 332 329 328 327 325 324 324 323 322 322 321 321 321 320 320 319 319 319 319 320 320 320 320 321 321 322 323 324 325 324 324 325 326 327 328 329 329 329 329 328 326 326 326 326 326 326 326 325 326 327 326 326 326 327 328 325 323 322 321 321 325 327
327 327 328 327 328 328 325 324 325 325 325 325 324 325 325 324 327 330 332 333 329 328 328 327 327 329 329 327 325 324 322 321 320 320 320 320 319 319 318 317 316 316 316 317 318 318 319 319 320 320 321 322 322 323 323 323 323 326 328 328 328 328 328 327 326 327 327 327 326 327 327 327 327 326 325 326 327 328 327 324 321 320 321 324 326 325
329 328 328 328 326 325 324 324 324 322 322 324 325 325 325 326 328 331 334 331 329 332 329 324 326 329 328 326 324 321 320 319 319 319 318 318 318 317 316 315 314 314 314 315 316 316 316 317 318 319 320 321 322 322 322 322 322 324 325 326 326 327 327 327 327 327 327 327 327 326 327 327 327 325 325 327 327 327 325 323 321 322 323 324 324 322
327 325 326 327 326 324 324 324 323 322 322 322 323 323 324 326 328 330 330 328 330 333 328 324 326 327 325 323 321 319 318 318 317 317 316 316 315 314 314 313 313 313 312 313 313 314 315 316 317 318 319 320 321 321 321 322 322 323 324 325 326 327 327 327 327 326 327 328 328 327 326 327 327 326 326 327 327 326 324 322 322 324 324 324 323 322
325 324 323 325 326 325 327 325 322 322 323 322 321 321 322 323 325 327 328 328 328 328 324 323 324 323 321 320 317 316 315 314 314 313 313 313 313 312 312 311 311 311 311 311 311 312 314 315 316 317 318 319 319 320 320 321 322 322 322 324 325 326 326 326 327 327 327 328 329 327 327 327 326 327 327 326 326 326 324 323 323 323 323 323 323 323
323 324 322 323 325 325 326 325 322 322 322 321 319 319 320 322 323 325 326 327 327 325 322 321 321 320 319 317 315 313 312 312 311 310 310 310 310 310 310 309 309 309 309 309 309 310 311 313 315 316 316 316 317 319 319 320 321 321 321 322 322 323 324 325 327 327 327 327 329 328 327 327 326 326 327 326 326 326 325 324 323 322 323 323 322 323
323 324 321 322 325 324 323 324 323 323 323 321 319 317 319 322 323 323 323 324 325 325 322 322 322 320 317 314 311 311 310 310 309 309 308 307 307 308 308 308 308 308 308 309 308 308 309 311 313 313 312 314 316 318 319 320 321 321 321 321 321 322 323 325 326 326 325 326 328 327 325 325 326 326 326 326 326 325 325 324 323 323 323 322 321 321
323 323 322 323 325 322 322 324 324 324 325 323 319 315 317 320 320 320 320 320 322 323 322 322 321 317 314 311 309 308 308 307 307 307 307 306 306 306 306 306 306 306 307 308 308 307 307 308 309 309 309 312 314 316 317 318 319 319 319 321 321 322 323 324 325 325 324 325 327 326 325 325 326 326 326 326 325 325 324 323 323 323 322 321 320 320
321 321 322 323 323 322 323 324 324 325 324 320 316 314 316 318 318 318 318 318 317 317 317 316 315 312 310 309 307 307 306 305 305 305 305 305 305 305 304 304 304 304 306 307 307 307 307 307 307 308 308 310 311 313 315 316 317 317 318 320 321 321 322 323 323 324 324 325 325 325 326 326 326 326 326 325 325 324 324 323 322 322 322 320 319 319
322 321 322 322 322 321 322 323 325 324 320 316 314 313 314 316 317 316 316 315 314 314 312 311 310 308 308 307 306 305 305 304 304 304 303 304 304 304 304 303 303 303 304 305 306 306 306 307 307 307 307 308 310 313 315 316 317 318 318 319 319 320 321 321 321 321 322 322 323 324 325 325 326 326 326 325 325 324 323 322 322 321 321 320 319 319
324 323 322 322 322 321 320 321 322 319 316 314 313 312 313 315 315 316 316 315 313 312 311 310 308 307 307 306 305 305 304 303 303 302 302 302 302 302 302 302 302 303 303 304 305 305 305 306 306 306 307 308 310 313 314 315 317 318 318 318 319 319 319 320 320 320 320 321 321 322 322 323 323 324 324 325 324 324 323 322 321 321 320 319 318 319
320 321 322 322 322 320 318 318 318 316 314 314 313 312 312 313 313 315 316 314 313 312 310 309 308 307 307 306 305 305 304 303 303 302 301 301 301 301 301 301 302 302 302 303 304 305 305 305 305 306 307 308 310 311 312 313 316 317 317 318 318 318 319 319 319 319 320 320 320 320 321 321 322 322 322 323 324 324 323 322 321 320 319 317 316 317
315 318 321 322 320 318 316 316 316 317 315 313 311 310 311 312 312 313 315 313 312 312 310 309 308 307 307 306 306 306 306 305 303 302 301 300 301 301 300 301 301 302 302 303 303 305 305 306 306 305 306 307 309 309 310 312 314 317 317 317 317 318 318 318 318 318 319 319 319 320 320 320 321 321 321 321 322 322 322 321 320 319 317 317 316 314
316 317 318 319 319 318 318 317 317 317 314 311 309 308 309 310 311 313 315 314 311 311 310 309 308 308 307 307 306 307 307 305 302 301 300 300 300 300 300 300 301 301 302 302 302 302 303 304 306 307 307 308 308 309 309 311 313 315 316 315 316 317 317 317 317 317 318 318 318 319 319 320 320 320 320 320 320 320 320 319 319 318 317 317 315 312
320 318 316 316 317 318 319 317 315 313 310 307 306 307 308 308 311 315 317 314 310 309 310 309 308 307 306 306 306 305 304 303 302 300 299 299 299 299 299 299 300 300 301 301 301 301 301 302 304 305 306 306 307 308 309 310 313 314 314 314 314 314 314 315 315 315 316 317 318 318 318 318 319 319 319 319 319 319 319 318 317 317 317 317 316 315
318 316 315 316 317 317 317 315 312 310 308 305 305 306 307 309 312 316 316 312 308 307 307 307 306 305 305 305 304 302 301 301 300 299 299 300 299 299 299 299 299 300 300 300 300 300 300 301 301 301 302 302 303 305 306 309 311 311 311 312 311 308 308 310 312 313 314 315 316 317 318 318 318 318 318 318 318 318 318 318 317 317 317 317 316 316
314 313 315 316 316 315 314 312 311 310 306 303 305 306 307 310 314 313 310 308 306 305 305 304 303 303 304 303 301 300 299 300 299 299 299 300 299 299 300 300 300 300 300 300 299 299 300 300 300 300 299 299 301 301 302 305 308 308 307 308 306 303 303 305 307 309 311 313 314 315 316 317 317 317 317 317 317 318 317 317 316 316 316 316 316 316
309 311 313 311 311 314 314 312 312 311 306 303 305 307 307 309 311 309 306 306 305 303 303 302 301 301 301 300 299 299 299 299 299 299 299 299 299 299 300 300 301 301 300 299 299 299 299 299 299 299 299 299 299 299 299 301 303 304 305 305 304 303 303 303 303 305 307 308 309 311 313 315 315 316 316 316 316 316 315 314 313 313 314 314 315 315
308 311 312 308 307 312 313 310 308 307 303 302 305 307 306 307 308 307 305 304 303 302 301 301 300 299 300 299 298 298 298 298 298 298 298 298 298 299 299 299 300 300 300 300 299 299 299 299 299 299 298 298 298 298 298 299 299 300 302 302 301 303 304 304 305 305 306 305 304 305 308 310 312 314 314 314 314 314 313 313 312 313 312 312 313 312
306 307 308 306 305 307 307 305 304 303 302 302 304 305 306 308 308 306 304 303 302 301 300 300 299 299 299 299 298 298 298 298 298 298 298 298 298 299 299 299 299 300 300 300 299 298 298 298 299 298 298 297 297 297 299 299 299 299 299 298 298 300 301 301 302 303 304 305 305 304 305 306 308 309 310 311 312 312 312 311 312 312 312 312 313 312
305 305 306 305 304 304 304 303 303 302 302 303 304 305 306 306 306 305 303 302 301 301 300 299 299 299 299 299 299 299 298 299 299 299 299 299 299 299 299 299 299 299 298 298 297 297 297 297 297 298 298 297 296 297 298 299 299 299 298 297 298 298 299 299 299 300 300 301 302 302 303 304 305 305 306 307 308 310 310 310 310 310 309 310 310 310
305 305 305 305 305 305 304 303 302 302 302 302 303 304 304 304 304 303 303 302 301 300 300 300 300 300 300 300 300 300 299 299 299 299 299 299 299 299 299 299 299 298 298 298 297 297 296 297 296 297 297 296 296 296 297 298 300 300 300 299 298 298 298 298 298 299 299 298 298 297 298 299 300 301 302 302 303 305 307 308 309 309 308 308 308 308
306 306 305 304 304 304 303 302 301 301 301 301 302 303 303 303 303 302 302 301 301 301 301 301 301 301 300 300 300 300 300 300 300 300 299 299 300 300 300 300 299 299 299 299 298 298 297 297 297 296 296 296 296 296 296 297 299 301 302 301 300 299 299 299 300 300 300 299 299 297 296 296 296 296 297 297 298 299 301 303 304 304 305 305 305 305
306 305 304 303 303 303 302 302 302 301 301 301 301 302 302 302 302 302 302 301 301 301 301 301 301 301 300 301 300 300 300 300 300 300 300 300 300 300 300 300 300 300 299 299 300 299 299 298 298 297 297 297 297 297 296 297 299 301 302 302 302 300 300 300 301 301 301 301 301 300 299 298 297 297 296 295 296 296 297 297 298 298 299 299 299 299
305 304 304 304 304 304 303 302 302 302 301 301 301 301 301 301 301 301 301 301 301 301 301 300 300 300 300 300 300 301 301 300 300 300 300 300 299 299 299 299 300 299 299 299 300 300 300 299 299 299 298 298 298 298 298 299 300 301 302 302 302 300 299 300 300 301 301 300 300 300 300 300 300 299 298 297 296 296 295 295 295 295 296 296 295 295
305 305 305 304 304 304 303 302 302 301 301 301 301 300 301 301 300 300 300 300 300 300 300 300 300 300 300 300 300 300 300 300 300 300 299 299 299 298 298 299 299 299 299 299 299 299 299 299 299 299 298 298 298 299 299 300 300 300 301 301 301 300 299 299 299 300 300 300 299 300 300 300 300 300 300 299 299 298 296 295 295 295 295 295 295 295
Wind_Speed
10 4 4 6 5 7 8 8 10 10 9 8 6 6 5 5 8 5 9 9 8 7 5 7 5 6 6 7 7 4 7 18 23 20 21 24 26 27 26 25 24 23 21 21 19 15 15 13 11 13 14 14 14 14 17 14 14 17 18 19 21 22 22 20 20 20 21 22 19 15 12 13 14 16 17 16 16 15 15 16 16 19 20 21 21 19
9 4 5 8 8 10 9 8 10 10 9 8 6 7 6 4 8 3 10 9 5 6 5 4 3 4 6 7 9 5 1 8 19 21 19 23 26 28 28 27 26 23 21 24 22 18 18 15 13 15 16 17 15 15 15 9 13 21 19 20 21 22 21 19 19 21 23 21 18 17 13 12 14 18 20 18 17 16 16 17 17 19 21 22 21 19
5 5 8 10 9 10 10 9 9 10 9 7 5 5 5 5 7 3 5 6 5 4 3 3 2 6 6 6 9 8 4 9 24 29 28 30 28 27 30 30 28 24 23 25 24 23 21 17 17 16 17 18 14 18 15 4 12 21 20 20 21 21 20 19 21 22 22 20 18 17 13 12 14 17 19 18 16 16 17 18 19 20 21 22 21 19
4 7 11 12 10 9 10 11 9 8 7 5 6 4 4 6 6 4 1 4 6 3 3 5 3 4 5 5 7 10 13 8 24 33 34 35 33 32 34 33 33 28 26 28 26 26 24 20 20 18 19 19 16 20 16 3 12 21 20 21 20 20 19 19 22 22 20 18 17 16 14 14 14 15 18 18 16 17 17 18 21 22 22 22 21 20
6 10 14 12 11 10 9 10 8 6 4 4 5 3 2 7 6 5 3 1 1 1 3 6 2 3 4 5 6 9 14 11 14 24 27 32 35 36 36 36 37 35 32 31 29 28 27 24 22 20 20 20 19 22 18 9 14 19 20 20 19 19 19 19 21 21 20 19 18 18 18 18 18 17 18 19 19 18 18 19 22 23 22 21 21 20
9 13 16 13 11 11 10 9 7 7 3 2 2 2 4 9 9 8 8 5 4 5 2 5 3 5 5 6 8 8 7 9 10 13 17 27 32 32 34 36 35 36 36 34 32 31 29 27 25 24 23 21 22 23 19 15 16 18 19 20 20 21 21 20 21 21 20 20 20 21 21 21 22 21 20 21 21 21 20 20 22 23 22 21 21 19
8 10 12 13 14 13 11 9 9 7 4 1 2 4 7 8 9 10 9 5 1 3 3 5 4 4 5 5 8 8 8 9 9 9 11 22 31 31 33 34 32 33 35 33 32 32 30 29 27 27 26 24 24 22 19 20 20 19 20 21 21 22 22 22 22 22 20 20 21 21 20 21 21 20 20 20 20 20 19 20 23 23 21 21 21 19
7 10 8 9 12 12 10 7 7 7 5 1 4 6 8 8 9 10 9 7 3 3 3 2 2 2 4 6 7 6 7 8 8 9 10 14 28 37 35 34 34 34 33 30 30 32 30 29 28 27 27 26 25 22 21 23 24 22 21 22 21 20 22 22 21 22 21 20 20 19 18 19 19 17 18 19 19 19 19 20 23 23 22 21 19 17
8 11 10 8 7 6 6 5 4 6 5 3 5 8 10 7 8 8 6 6 3 1 3 3 1 2 4 5 7 7 5 1 4 6 4 3 12 31 34 29 31 31 29 26 26 29 28 27 26 25 27 28 26 24 23 24 27 26 23 22 22 20 21 22 21 22 22 20 19 18 18 18 18 17 18 19 19 21 21 19 22 23 22 20 17 16
6 11 13 9 6 5 4 4 4 4 3 5 7 8 9 6 5 1 1 3 3 1 3 3 1 2 5 5 5 5 3 2 5 7 8 14 19 24 24 20 22 24 25 23 22 25 25 25 25 25 27 28 27 27 25 25 27 29 27 24 23 21 20 21 22 23 22 21 20 19 18 18 17 18 20 20 20 23 23 21 22 22 21 20 17 16
8 11 14 7 4 5 3 3 3 4 5 5 6 6 6 6 3 1 3 2 4 2 4 5 4 4 4 5 4 2 2 1 5 7 7 13 23 25 23 20 21 23 24 22 19 20 21 21 22 25 28 29 28 27 27 29 30 30 29 27 24 21 20 21 22 22 21 21 21 19 19 20 19 20 22 22 22 24 24 23 23 22 21 19 17 16
10 8 7 3 4 6 3 2 5 8 9 6 5 4 2 4 2 3 4 3 1 4 4 4 5 4 3 3 3 4 4 5 6 8 8 9 15 21 22 23 22 19 19 18 17 18 20 22 25 28 29 29 28 28 28 28 31 31 29 27 24 21 20 22 21 21 21 21 20 20 21 21 20 21 22 23 23 24 24 23 22 21 20 18 17 17
8 5 3 3 6 9 6 4 5 7 7 6 5 3 3 1 2 1 2 1 2 5 5 6 7 5 4 4 2 6 7 8 9 9 11 11 13 17 17 17 15 12 11 11 10 8 6 7 12 21 26 27 27 27 28 29 28 29 26 23 22 20 19 21 20 20 20 19 18 19 20 21 20 20 21 22 23 22 22 22 21 20 19 19 19 18
5 5 5 4 5 8 7 4 3 5 3 5 5 4 4 2 1 2 3 2 3 5 6 7 5 3 1 3 3 7 8 10 14 17 19 18 15 15 14 12 9 8 10 11 10 7 9 18 20 15 13 16 20 17 19 25 25 22 21 18 17 18 18 18 19 19 18 17 17 17 17 19 19 19 20 22 21 20 20 20 19 19 19 19 20 18
4 4 5 5 4 9 8 5 5 4 3 4 4 4 5 4 3 3 3 3 4 3 4 2 2 2 3 3 4 6 12 16 20 21 23 24 20 15 14 16 14 12 10 6 5 4 3 11 15 18 23 18 14 15 14 14 16 15 15 16 16 16 17 17 18 17 16 16 15 15 16 18 19 19 19 20 19 18 19 18 18 19 19 18 17 17
4 4 7 9 9 10 9 7 5 4 2 3 4 5 4 5 5 4 4 5 4 2 2 1 2 0 2 3 4 8 13 16 20 22 23 24 22 19 17 20 22 20 17 12 9 8 7 8 8 12 17 19 16 15 17 14 15 15 13 16 17 16 17 16 15 15 15 15 13 14 16 17 18 20 20 20 20 20 19 19 19 18 17 16 16 16
3 4 7 13 12 9 11 10 9 6 3 3 4 6 6 6 6 3 4 3 4 3 2 2 2 3 1 2 5 8 11 11 14 17 19 21 22 23 23 24 26 25 22 19 15 12 11 10 9 12 10 12 18 9 14 13 15 19 17 16 15 16 18 16 14 16 17 16 14 13 16 17 17 18 20 22 23 22 21 19 18 18 17 17 17 17
4 4 5 8 7 11 17 14 11 10 8 4 4 6 6 5 4 3 1 2 3 2 3 3 5 1 1 0 4 5 9 9 10 11 15 20 22 22 22 23 26 26 24 21 18 14 13 10 8 12 13 11 14 7 7 5 6 16 21 16 9 11 16 16 16 18 18 16 15 15 18 18 16 17 21 24 24 24 22 20 18 18 19 19 19 18
4 3 5 1 1 7 14 10 6 9 11 7 4 5 4 4 4 3 2 2 2 2 3 2 5 2 2 0 4 5 7 7 8 9 11 15 18 18 19 21 22 24 23 21 20 16 14 12 9 11 14 13 13 11 7 4 3 5 14 12 7 10 15 16 16 17 16 14 14 17 19 18 17 19 23 24 24 24 22 21 20 20 20 20 19 18
3 1 3 3 2 4 7 5 4 6 8 6 5 5 1 4 4 3 3 4 3 3 2 1 3 2 0 0 4 5 6 6 6 7 9 12 15 16 16 19 20 21 22 22 21 19 15 14 13 14 15 15 17 18 18 14 7 2 5 7 11 15 17 15 13 15 16 14 14 18 20 19 18 21 22 21 21 23 23 22 22 21 21 20 19 18
2 3 1 5 4 2 3 4 6 6 6 5 4 3 2 1 2 1 2 3 4 3 2 3 1 3 2 2 2 3 4 6 8 8 8 11 16 16 16 18 19 20 22 21 20 20 19 18 17 17 17 17 17 18 20 18 11 6 6 7 10 15 17 16 15 18 19 18 18 20 22 21 20 22 21 19 20 22 22 21 21 21 21 19 18 18
3 3 3 4 3 3 4 5 8 7 6 6 5 4 4 2 2 2 3 3 2 3 3 4 2 4 2 3 3 2 3 5 11 12 10 12 16 16 16 18 20 20 20 20 20 22 23 23 22 20 17 15 15 15 15 15 15 13 12 11 11 11 14 17 19 21 21 19 21 22 22 22 22 23 21 20 21 22 21 21 20 20 19 18 18 17
1 4 4 2 3 4 6 4 7 9 6 4 4 5 6 4 2 3 3 4 1 2 2 4 3 3 2 3 4 3 5 8 15 16 12 13 14 14 16 18 20 21 19 18 20 22 24 24 23 21 18 16 15 15 15 13 12 14 14 14 12 10 11 16 20 21 20 19 21 22 22 21 23 24 22 21 22 21 20 20 19 19 18 18 18 18
6 3 4 1 2 4 8 8 3 5 4 2 2 2 4 7 6 5 5 3 3 2 2 4 2 3 1 3 5 8 10 13 16 16 14 14 14 14 16 17 18 20 21 20 20 22 22 22 22 22 20 18 17 16 16 16 13 11 12 13 13 12 13 15 18 20 19 19 22 24 23 23 24 24 23 23 21 19 18 17 17 18 17 18 21 19
3 1 3 3 2 3 6 8 6 4 3 2 4 8 7 2 1 1 2 4 2 2 4 6 2 3 2 4 6 8 10 11 15 16 14 14 15 16 17 17 17 19 21 20 20 21 21 20 20 20 19 18 18 17 16 16 17 14 11 9 10 13 15 15 16 19 20 20 24 26 25 25 26 24 23 23 21 20 18 16 16 18 18 20 23 19
0 1 2 5 4 2 1 2 2 3 4 2 6 12 12 8 6 4 3 5 3 2 3 4 3 2 4 6 6 7 7 9 13 15 15 15 17 18 18 18 18 19 20 19 19 20 20 19 18 18 17 15 14 15 15 14 15 16 13 10 7 8 12 15 16 17 19 21 26 28 26 26 27 24 24 23 22 22 19 15 15 18 19 21 22 19
2 2 4 6 5 5 4 3 3 3 3 5 10 12 10 7 6 7 4 3 2 2 5 4 1 6 6 6 7 7 7 8 10 12 13 14 17 19 19 19 19 19 20 18 17 17 17 18 17 16 16 15 13 13 14 14 13 14 14 12 8 4 7 15 19 19 20 22 26 27 27 27 26 24 24 24 23 22 17 14 15 17 20 23 21 18
3 4 4 5 5 4 5 4 1 1 6 9 10 10 10 8 7 8 6 2 2 4 2 4 1 6 6 5 8 8 7 8 9 11 13 14 17 19 19 18 18 19 19 18 17 18 19 18 17 15 15 15 15 15 15 16 15 13 12 11 8 4 5 12 19 21 22 23 26 27 27 26 26 26 26 25 23 20 17 16 17 17 20 21 18 17
4 3 4 4 5 4 4 5 5 5 7 10 12 10 10 10 8 7 5 3 4 4 4 5 3 5 5 7 8 8 8 10 12 15 17 18 19 19 18 17 17 17 18 18 18 18 20 20 19 18 16 15 15 15 15 16 15 13 11 9 7 5 4 8 15 20 24 26 28 28 28 28 27 27 26 24 21 18 17 19 20 18 19 18 17 16
3 2 3 2 4 4 5 6 7 7 7 10 12 11 9 9 9 8 5 4 6 6 7 9 9 5 4 7 9 11 14 16 19 19 19 19 18 19 18 17 15 15 16 17 18 18 19 20 20 19 18 17 17 16 16 16 15 13 11 9 7 5 4 4 12 20 23 24 25 27 27 27 27 26 25 23 21 19 19 21 21 20 19 19 18 17
4 1 4 2 4 2 5 6 7 8 9 10 12 11 9 8 9 8 6 6 5 7 8 10 10 5 4 8 12 15 17 19 20 19 18 17 17 18 18 16 14 14 15 16 18 19 19 21 20 20 20 20 19 17 17 16 14 14 13 11 9 7 5 2 7 14 17 19 22 25 26 25 25 25 24 25 25 23 21 21 21 21 20 21 20 18
3 2 2 2 3 1 2 6 7 8 10 10 10 10 10 6 5 5 5 4 3 7 9 8 6 3 4 10 14 16 18 19 18 15 15 16 17 17 17 16 15 14 14 16 17 19 20 20 20 20 22 22 21 19 17 15 14 13 13 13 12 9 6 5 11 19 21 19 20 22 23 23 23 23 24 25 25 24 23 22 23 22 21 22 21 19
2 3 1 2 3 1 1 6 7 6 7 5 3 5 7 4 3 4 6 7 6 5 6 4 3 4 6 9 11 12 14 17 17 15 13 14 16 18 17 16 15 14 15 15 16 18 19 19 19 20 21 22 23 22 19 16 16 16 15 13 12 9 8 7 11 18 20 19 20 22 23 24 23 23 23 24 24 24 24 23 24 23 21 22 21 19
1 3 2 2 3 0 0 5 5 4 4 1 2 2 4 4 6 8 8 8 9 8 7 7 7 8 9 9 10 11 14 16 18 18 16 15 15 17 17 16 15 15 15 16 16 18 19 18 17 18 18 20 22 22 19 17 17 17 15 14 12 11 11 10 9 11 14 14 14 17 21 25 26 24 23 23 23 23 23 23 25 25 23 23 21 19
1 2 2 2 4 2 1 4 4 2 2 2 1 4 5 3 7 11 11 11 10 9 11 11 10 10 12 13 15 17 18 20 21 21 19 17 15 15 16 15 15 15 17 18 17 18 19 19 18 17 17 17 18 19 18 17 16 14 14 14 15 15 14 13 12 12 12 12 11 11 14 19 23 24 24 24 22 21 21 23 26 26 24 24 22 19
3 2 1 1 2 3 2 2 3 3 2 1 3 6 6 4 4 7 9 10 8 7 9 10 10 11 14 16 17 19 21 24 24 22 20 18 17 18 18 17 17 18 19 20 19 19 21 22 20 18 17 15 15 17 17 16 15 14 13 13 14 17 17 16 16 16 15 14 13 11 11 12 13 14 17 21 22 19 18 20 23 25 26 25 21 17
1 2 2 1 1 3 3 2 3 4 2 2 3 4 4 2 2 2 4 5 6 6 10 9 8 11 13 15 17 19 18 20 20 18 19 19 19 20 20 19 20 20 20 20 20 19 19 21 21 21 19 17 17 17 16 15 14 14 14 13 13 14 15 15 17 19 18 17 15 13 12 11 8 6 8 13 18 19 18 18 20 22 22 17 12 12
6 3 1 3 1 2 5 4 3 3 2 1 2 5 7 4 3 3 2 3 6 5 12 12 8 10 12 12 15 14 8 10 9 9 15 19 19 20 20 20 21 21 20 20 20 18 17 17 19 21 20 20 20 18 16 15 15 15 16 17 16 15 15 16 16 17 18 18 18 17 16 14 11 9 8 10 13 16 16 15 15 15 13 9 10 15
8 6 4 2 1 3 5 4 2 2 2 1 3 7 11 11 7 4 2 2 6 6 12 14 9 9 10 9 8 6 1 3 3 6 14 19 20 21 21 21 21 20 20 20 20 20 19 17 17 18 19 21 21 19 17 16 16 17 18 18 18 18 18 17 16 16 16 15 16 17 16 15 13 12 13 12 12 12 13 13 12 13 13 13 15 18
6 5 5 3 0 2 3 3 2 2 2 2 4 8 13 13 6 1 2 2 4 9 12 13 10 10 11 10 9 6 4 4 7 9 15 18 19 20 21 21 21 21 21 21 20 20 20 19 19 19 19 20 19 17 16 16 17 20 20 20 20 20 20 18 16 15 15 14 14 15 16 16 15 15 15 15 13 13 13 14 15 15 15 15 16 16
4 3 3 1 1 4 4 3 2 2 1 3 8 11 13 9 1 2 2 3 7 13 14 13 13 11 11 12 14 12 11 13 16 16 17 18 19 20 21 22 23 23 23 22 21 20 20 20 20 21 20 19 17 15 14 13 15 19 20 19 21 22 20 17 15 14 14 14 14 14 15 16 17 17 16 16 15 14 13 13 14 15 14 12 12 12
2 2 2 1 1 2 3 3 2 2 2 7 12 11 7 3 2 2 5 8 13 15 15 15 15 15 16 19 22 23 22 22 21 19 19 19 20 20 20 20 20 21 21 21 21 21 21 20 20 20 20 18 16 15 14 12 13 16 16 18 20 19 17 15 13 13 12 13 14 14 14 15 16 17 17 17 18 17 16 14 13 13 11 10 9 9
1 1 2 2 1 1 3 3 2 3 2 11 11 5 4 2 4 9 14 15 15 16 16 16 16 18 21 25 26 26 25 22 20 19 19 19 19 19 19 19 19 18 17 18 18 18 19 20 21 20 20 18 16 15 14 14 14 14 14 16 16 14 13 13 12 11 11 12 13 13 14 14 15 16 16 17 18 18 18 18 18 18 17 15 13 11
1 1 1 1 2 1 3 2 1 1 4 10 7 1 0 3 9 16 18 16 15 16 18 19 18 19 24 26 25 23 22 21 20 19 18 18 18 18 19 20 20 20 18 17 16 15 15 18 18 18 19 19 17 17 16 15 14 13 13 14 13 11 10 10 9 8 9 10 10 11 11 12 13 15 15 16 17 17 18 18 19 19 19 18 17 16
2 4 6 4 2 3 5 4 4 4 5 8 8 9 11 14 16 18 20 20 17 16 18 21 20 20 23 25 24 22 22 20 19 17 17 17 17 17 18 18 19 19 18 17 16 15 15 15 15 15 17 18 18 18 17 17 15 14 14 13 11 9 10 10 8 8 7 7 7 7 7 8 9 11 13 14 14 15 16 16 16 16 16 16 16 15
6 10 8 5 5 7 10 9 8 8 9 11 15 20 23 24 21 20 22 23 20 18 21 23 24 24 24 24 23 23 21 20 20 19 18 17 17 17 17 17 17 17 16 15 15 15 15 14 15 15 15 16 16 15 15 16 17 16 15 13 10 9 9 9 8 8 8 7 7 6 6 5 5 6 7 8 9 11 13 13 13 13 14 14 15 15
6 10 8 3 4 5 5 7 8 9 11 14 18 23 24 23 21 21 24 24 22 22 24 25 25 24 23 22 23 23 22 22 22 22 21 20 21 20 19 18 18 18 17 16 15 14 14 14 15 15 15 15 14 13 12 13 15 17 17 15 13 11 11 11 10 10 10 10 10 8 7 6 6 6 5 5 5 6 8 10 10 11 11 11 12 12
5 9 8 5 4 4 5 8 11 14 15 16 18 21 22 23 23 23 24 26 26 27 27 27 26 26 24 23 23 23 22 21 20 20 20 20 20 21 22 20 19 19 19 18 18 17 16 15 14 13 13 13 14 13 11 11 13 15 16 15 14 12 12 13 13 13 14 13 13 13 12 11 10 9 8 7 6 6 7 8 8 8 8 8 7 7
10 8 5 6 7 7 8 10 12 14 15 16 19 21 22 23 24 24 25 26 27 26 26 24 23 22 22 21 21 21 20 18 16 15 16 16 16 17 17 17 17 18 18 17 17 18 18 17 16 14 12 12 13 13 13 12 11 12 12 12 11 10 10 10 12 12 13 13 13 13 13 13 13 12 11 11 10 9 9 8 7 6 6 6 6 5
11 5 3 6 6 5 4 5 6 6 8 11 17 22 23 24 25 25 24 24 23 22 21 20 20 18 17 15 14 13 13 12 12 11 12 13 14 14 13 13 14 16 16 14 13 14 15 16 16 15 13 11 11 13 15 15 13 12 11 10 10 10 10 9 11 12 12 12 11 12 12 12 12 12 12 12 12 11 11 11 10 8 7 7 6 5
11 7 6 5 5 7 10 11 12 12 12 13 17 21 22 24 25 25 24 23 22 22 21 22 22 21 19 18 17 15 15 15 15 15 16 15 14 13 12 12 12 12 12 11 10 11 12 12 12 13 14 13 12 13 15 15 14 12 10 8 9 10 10 9 10 12 13 12 11 10 10 10 10 10 11 12 12 12 11 11 11 10 10 9 8 7
Wind_Direction
194 187 209 215 224 230 232 222 237 253 256 272 281 284 278 268 281 243 157 169 155 128 187 190 189 248 278 291 301 275 178 142 139 147 150 156 159 162 168 168 163 156 156 158 153 151 154 151 157 164 161 148 145 161 159 155 179 188 197 202 200 201 205 209 208 210 207 201 207 212 197 192 195 203 206 204 207 212 213 215 213 208 204 201 201 202
191 192 221 220 223 232 241 231 238 259 271 280 286 293 306 306 296 260 150 165 127 112 199 170 100 292 291 290 297 304 240 138 143 148 154 161 164 169 174 173 169 159 156 159 155 157 162 162 166 166 164 154 151 165 157 153 189 191 196 201 203 206 207 212 211 209 209 206 208 209 207 208 200 197 205 211 212 212 214 213 211 207 203 201 200 201
191 215 223 222 227 228 241 244 236 243 253 271 278 286 301 303 306 313 136 138 108 117 201 120 105 274 278 278 287 292 275 171 161 161 165 167 168 173 176 174 173 167 161 162 160 163 167 168 168 168 169 161 161 170 157 146 197 193 200 199 201 209 208 210 211 210 211 209 209 208 212 215 201 194 204 215 215 211 211 206 202 201 199 197 197 198
190 223 218 218 228 225 235 245 236 236 241 245 248 254 275 278 292 305 326 129 143 169 156 130 161 269 296 303 304 294 289 236 171 169 171 173 174 176 177 176 176 177 173 168 168 172 175 176 177 180 177 169 175 177 162 173 211 200 204 203 201 208 210 209 208 210 214 213 212 210 210 208 200 199 203 207 208 206 205 199 194 194 193 194 193 194
216 214 208 214 228 225 234 248 239 228 238 244 233 198 250 280 289 293 307 95 140 314 114 120 72 325 289 281 293 288 289 275 197 178 171 176 182 182 179 180 181 183 184 180 177 180 183 184 188 190 187 184 189 187 176 194 218 208 206 206 203 207 212 212 210 210 212 214 214 208 203 198 196 199 199 199 200 199 197 193 189 188 188 190 191 193
235 215 197 202 224 229 231 243 241 216 209 270 241 189 243 280 299 307 321 7 23 326 316 99 59 305 268 238 257 268 272 269 239 209 183 179 185 184 179 181 184 184 189 190 185 186 189 190 192 192 193 197 194 194 195 203 213 210 209 210 205 207 211 213 214 210 206 208 208 205 201 196 193 194 195 197 197 192 189 187 184 183 184 187 190 191
239 226 196 193 207 222 226 232 237 209 159 62 232 217 227 254 284 295 304 329 80 257 285 92 121 270 295 259 244 242 248 258 253 243 212 183 178 182 184 182 182 184 189 190 184 186 190 191 195 194 195 201 196 198 207 207 208 208 211 213 209 209 212 211 211 207 204 204 203 204 207 205 199 193 191 191 190 185 182 182 181 181 182 185 187 187
219 227 229 209 198 209 219 222 217 170 132 188 244 251 237 228 250 261 266 266 221 219 317 47 151 251 288 271 258 242 245 261 269 267 249 202 177 178 183 182 182 188 191 186 181 187 191 195 203 200 195 199 198 201 210 208 206 207 210 212 211 211 211 212 210 206 206 205 203 204 208 211 205 197 190 183 180 180 178 181 183 182 181 181 182 183
201 209 234 234 205 204 201 188 166 138 134 196 214 245 250 227 231 247 258 264 247 194 328 336 314 300 273 270 283 272 262 310 348 335 332 12 152 168 174 174 177 184 189 185 184 191 194 199 207 205 199 197 198 204 213 213 207 205 208 210 211 212 212 215 211 205 206 208 206 203 203 208 205 199 191 180 177 179 177 178 182 181 179 177 176 178
220 202 212 223 216 202 177 157 151 145 166 197 205 235 262 257 228 190 38 316 344 66 255 259 200 270 280 289 298 280 288 90 73 36 39 55 84 130 148 150 160 172 181 186 191 197 201 205 210 209 202 198 200 208 216 218 209 204 208 212 213 213 212 216 216 208 204 206 207 202 198 202 200 195 188 180 177 179 177 175 178 178 175 175 175 175
263 217 207 218 206 161 120 126 166 216 222 206 211 227 264 277 254 73 59 31 12 322 242 237 205 207 260 301 350 27 331 270 110 73 52 63 81 105 123 139 159 173 181 184 193 205 210 212 213 212 207 203 204 210 216 217 210 205 211 215 215 214 210 214 219 213 204 203 204 200 197 198 196 191 188 185 180 179 179 176 175 175 174 176 175 170
263 237 217 234 188 140 111 227 205 226 233 210 204 196 222 296 333 12 1 41 336 261 254 263 258 235 230 267 344 23 26 31 66 87 86 71 77 97 120 139 154 166 176 185 198 209 212 213 214 213 212 208 208 215 220 217 212 210 215 218 217 214 209 211 219 216 207 204 203 198 194 195 195 190 187 187 183 178 178 177 176 177 176 174 169 164
249 242 243 237 202 167 158 218 211 223 228 200 195 149 120 318 8 33 312 340 228 245 228 231 251 249 226 236 327 19 30 42 48 66 77 78 93 107 117 130 139 134 139 160 172 183 204 231 232 224 223 218 214 221 226 221 216 215 217 222 220 213 210 212 216 213 206 203 200 196 191 189 191 189 184 185 182 177 176 177 179 178 173 168 166 164
244 262 259 245 208 174 164 169 188 221 200 161 176 138 129 160 131 200 237 229 225 242 224 203 216 238 242 277 332 29 32 43 54 60 59 62 89 107 92 83 89 83 95 123 124 100 36 12 2 341 309 260 233 237 239 227 225 225 223 223 218 213 213 214 214 210 203 202 199 193 192 189 188 187 183 181 180 177 176 177 179 177 172 170 168 163
196 240 242 251 212 173 179 180 178 210 189 168 179 147 150 163 159 204 207 198 214 254 263 177 137 189 167 250 289 48 48 44 51 56 57 58 70 82 65 53 52 45 51 78 91 92 9 347 337 338 345 329 278 270 273 247 237 238 232 227 220 215 219 222 221 213 201 203 200 190 191 192 187 184 179 176 177 177 175 173 174 174 173 171 165 160
199 222 205 223 224 177 172 189 199 236 249 209 182 153 182 187 170 211 218 191 164 83 326 22 78 263 157 242 297 60 56 45 48 48 50 55 60 64 52 43 44 40 37 31 16 4 345 328 314 319 335 348 340 288 259 246 240 237 231 230 227 223 222 221 215 203 195 201 199 188 191 190 182 180 177 173 171 171 169 168 169 167 166 165 161 162
203 247 199 202 216 180 160 177 194 212 232 236 200 183 207 198 163 183 251 237 113 98 272 172 105 325 6 335 344 58 58 39 41 40 42 46 49 51 44 41 45 47 46 40 27 11 354 348 7 12 354 5 14 328 242 231 235 231 226 227 225 217 208 198 190 187 189 194 189 186 192 188 181 179 175 170 166 164 164 165 164 160 158 161 162 163
195 261 236 192 202 183 171 177 190 200 207 226 235 206 200 204 189 163 232 301 81 120 257 162 142 224 129 313 325 52 66 40 32 35 38 41 44 46 43 48 57 58 57 53 46 39 23 12 23 37 38 40 34 14 234 240 260 229 223 227 229 207 186 173 176 183 184 186 184 185 185 182 181 180 174 168 163 160 161 165 167 164 160 161 164 164
194 251 294 275 207 184 172 172 195 214 215 217 241 235 180 168 213 204 179 231 126 146 267 150 124 86 77 253 323 28 69 53 37 41 43 42 47 50 48 56 65 65 65 63 60 58 54 52 59 60 56 60 65 73 112 98 27 217 210 213 202 181 170 164 170 175 176 184 186 181 176 175 183 182 174 167 162 160 162 168 172 170 165 165 171 174
190 138 306 278 267 206 179 173 191 217 227 236 266 274 207 145 175 197 191 184 147 156 229 107 83 39 334 305 355 22 59 67 55 53 56 56 56 54 52 55 60 63 63 63 62 64 69 67 68 76 73 74 86 96 107 108 90 116 184 184 174 167 167 170 176 174 174 185 188 181 176 176 182 181 172 165 163 163 168 174 177 176 175 175 179 183
184 108 226 270 309 298 214 187 181 186 195 218 255 270 268 182 148 130 243 194 145 150 182 123 77 274 242 113 64 49 65 80 83 73 63 65 63 57 54 55 55 58 60 59 59 60 63 65 67 76 75 71 86 107 114 116 123 143 148 151 157 163 168 173 181 182 180 185 189 186 181 177 179 177 172 168 168 170 176 181 184 186 187 185 183 183
160 140 186 257 312 301 250 188 176 190 184 175 193 214 220 210 130 107 293 270 143 127 159 142 169 265 270 99 101 74 43 77 91 87 74 69 71 62 56 58 57 59 60 59 58 58 60 63 63 67 69 68 78 93 103 118 138 144 138 139 147 159 169 170 174 180 183 187 190 188 184 180 178 175 173 171 172 177 182 183 185 191 190 185 180 176
56 131 146 222 240 249 272 248 190 202 215 192 188 204 203 199 165 153 212 252 182 90 88 107 121 265 281 101 119 96 59 73 86 90 86 76 74 68 61 61 61 60 62 62 62 62 64 68 68 67 66 65 66 71 75 89 121 135 134 141 152 160 166 167 170 175 182 188 189 187 186 185 180 175 175 175 176 182 186 186 189 193 188 177 170 169
0 96 127 182 292 311 312 309 272 196 203 238 292 279 213 208 205 184 177 175 155 152 127 99 97 254 238 101 117 106 82 76 79 83 84 77 72 68 64 64 63 62 66 68 66 63 66 71 73 72 70 65 62 66 72 73 80 104 128 143 158 167 167 165 169 177 185 192 190 186 186 185 181 178 178 176 179 185 186 184 186 186 181 168 160 163
350 46 109 98 28 347 330 325 340 8 26 30 19 16 7 336 160 124 88 80 102 186 142 125 163 241 175 128 113 99 82 72 72 74 75 73 71 70 67 65 64 65 67 68 63 61 66 70 69 70 70 68 64 65 72 79 79 83 98 123 151 171 171 167 172 177 181 188 190 189 188 186 185 184 177 171 175 181 179 176 177 178 174 161 157 164
89 24 80 109 130 161 214 296 309 320 320 351 31 27 18 17 50 72 65 63 54 340 63 103 158 173 144 132 115 99 87 76 71 72 70 69 71 73 71 67 65 65 64 63 60 59 63 68 68 67 67 67 65 62 64 74 85 91 93 96 117 169 178 179 187 183 175 180 187 191 192 188 186 183 173 169 174 177 176 175 176 176 169 157 158 168
92 40 60 104 120 147 157 174 219 263 340 32 31 27 22 20 58 86 88 78 100 78 37 3 143 135 138 133 114 100 86 79 74 72 70 67 69 70 68 67 66 63 61 61 60 57 57 62 66 68 67 65 62 60 62 66 81 97 101 98 97 114 155 170 187 191 183 179 183 190 191 185 181 176 171 172 175 177 181 179 171 168 162 158 163 170
92 37 26 78 80 107 129 124 160 339 36 51 41 28 20 17 47 79 92 115 109 92 65 299 275 121 120 101 99 96 86 83 76 72 70 67 66 67 66 67 69 64 59 60 59 54 53 55 61 66 69 69 68 67 68 69 75 90 101 104 105 99 131 165 183 194 196 188 182 185 186 180 176 174 173 176 177 180 184 170 159 158 158 160 164 162
95 37 4 60 65 64 70 71 80 70 58 59 52 36 19 15 36 63 75 102 102 113 180 198 148 111 107 95 92 89 82 79 75 71 71 69 68 68 66 65 66 62 59 60 59 56 54 53 55 59 63 66 68 66 67 68 71 79 94 107 113 121 147 174 181 188 197 194 183 179 178 175 175 175 176 176 176 178 173 159 155 159 159 161 162 159
80 357 328 58 76 73 73 70 71 74 71 63 54 43 25 16 29 46 34 35 86 121 152 136 111 87 90 98 92 83 78 76 72 67 64 64 66 69 68 65 62 60 60 62 63 62 63 61 57 56 57 58 58 58 59 64 66 64 71 87 101 113 120 178 195 197 201 196 182 175 174 173 175 177 173 168 167 167 162 157 159 163 162 162 162 162
82 239 282 32 71 79 92 88 77 81 85 70 50 35 32 27 20 27 23 11 57 105 119 114 108 92 81 90 82 77 75 72 68 60 53 53 59 66 69 66 61 59 62 66 68 68 70 70 67 62 58 55 55 57 58 60 63 60 56 58 63 73 76 99 186 182 183 182 174 172 173 173 177 180 174 167 165 164 161 161 163 166 167 166 164 164
99 172 279 36 64 356 90 100 89 87 86 69 45 21 19 36 30 22 25 9 45 117 120 109 109 119 103 90 77 68 67 67 64 58 54 54 56 60 63 61 55 55 62 68 72 70 68 71 73 69 64 59 57 59 60 60 62 64 61 57 53 55 68 95 119 128 142 165 175 175 177 179 182 183 178 172 168 164 164 165 166 167 168 166 166 165
126 138 151 113 98 7 85 113 106 91 75 50 29 3 357 20 75 53 36 27 35 90 115 106 104 106 97 88 79 69 64 63 60 57 56 59 60 59 60 60 58 60 68 74 75 73 69 70 73 72 70 68 64 63 63 63 63 65 68 69 65 66 81 102 115 123 135 157 171 177 183 186 184 183 179 174 170 170 169 167 167 169 167 165 165 164
339 121 142 127 109 140 126 102 89 80 85 56 263 289 327 4 73 69 49 43 50 67 78 75 74 75 76 80 84 82 76 70 67 63 61 64 66 62 60 60 62 68 76 80 79 78 76 74 74 76 77 76 74 73 72 70 69 69 69 73 76 79 86 95 105 114 121 132 150 171 182 186 185 183 180 175 172 175 174 168 166 166 163 162 163 163
100 90 111 107 111 149 140 90 78 81 141 173 283 352 344 11 83 81 64 51 58 76 83 82 82 82 87 92 93 93 90 81 72 64 60 62 66 67 65 62 63 71 78 80 81 81 80 78 77 77 77 78 81 84 85 83 80 78 75 76 79 81 84 88 91 95 102 112 126 146 164 178 184 182 179 177 173 173 173 166 162 162 162 162 160 158
145 140 116 97 111 127 120 90 116 140 140 108 40 14 1 359 42 65 62 47 45 75 90 92 99 103 104 106 106 104 98 85 73 63 60 65 70 72 73 71 69 72 75 77 80 79 78 80 80 77 76 79 81 82 83 84 87 89 88 86 83 82 83 86 89 93 98 107 119 126 133 153 170 174 173 172 171 173 175 169 164 165 163 159 155 154
115 156 140 143 129 116 109 73 99 124 99 36 35 10 3 1 333 11 70 47 26 73 105 106 108 113 114 119 126 123 103 82 69 58 58 67 73 75 78 79 77 76 76 77 81 83 82 84 85 84 83 83 80 75 73 75 80 85 87 89 90 89 88 88 89 93 96 100 107 116 122 126 136 153 168 171 174 180 182 178 174 169 162 159 167 176
9 358 132 159 168 95 114 111 113 150 169 83 32 350 346 342 309 316 90 66 4 59 116 121 118 125 133 143 154 155 119 68 59 54 61 70 75 76 78 80 80 80 80 78 80 84 85 84 86 88 89 88 85 81 79 80 82 83 81 80 84 90 91 90 89 90 94 95 97 103 108 109 113 126 144 163 177 184 183 180 176 171 167 175 188 187
24 20 39 78 108 112 128 136 133 158 156 66 347 328 334 337 333 340 85 96 355 29 108 122 123 131 141 147 152 161 106 69 82 74 76 79 78 76 76 75 76 78 78 77 75 74 75 78 85 89 90 89 88 88 88 90 91 90 85 81 81 83 82 82 84 85 89 93 96 102 106 106 109 118 126 137 152 162 164 166 167 165 165 168 171 176
26 31 31 9 73 109 106 106 78 94 116 26 327 312 322 329 334 22 151 152 19 42 89 108 105 110 122 118 100 65 44 109 125 104 95 91 84 81 79 76 75 74 73 73 72 69 71 75 79 81 79 78 81 85 88 92 95 94 91 87 82 77 71 69 73 77 83 91 99 105 109 109 111 114 117 121 131 141 149 156 160 159 158 160 165 172
27 43 58 26 101 81 84 107 93 72 79 342 316 311 320 325 327 138 175 147 79 68 81 93 91 99 114 116 107 92 88 108 118 114 106 100 91 87 83 78 76 73 69 70 70 70 70 70 71 72 70 68 71 73 75 85 93 93 93 91 83 74 68 67 69 73 79 86 93 101 110 113 114 113 113 114 118 123 131 144 156 161 165 171 177 180
2 359 38 26 351 63 87 103 95 99 33 333 317 314 334 342 183 118 92 107 97 86 89 94 97 105 110 108 109 111 112 116 120 116 109 104 101 97 92 86 81 74 70 68 69 72 72 70 69 68 65 64 66 64 61 69 81 84 88 90 84 76 73 72 71 74 78 82 86 94 102 109 114 116 116 116 117 116 113 114 123 136 149 163 174 183
103 113 77 59 358 55 95 88 102 153 336 338 331 326 3 33 128 111 97 97 97 97 100 99 101 111 114 111 112 116 120 121 120 115 108 104 102 101 99 94 86 80 75 70 68 71 74 73 70 66 63 64 66 62 58 61 69 74 78 81 79 78 79 77 74 77 81 80 81 87 95 102 110 116 119 119 121 121 118 112 109 110 112 114 115 117
304 242 132 142 291 6 102 108 105 138 337 343 353 22 47 93 122 119 108 99 95 100 105 105 106 115 119 119 118 118 118 115 113 111 105 100 98 99 97 91 83 79 77 72 68 67 69 73 72 67 64 65 65 64 61 59 62 70 74 72 73 78 80 78 79 84 85 80 77 79 89 100 109 117 122 124 124 124 123 121 120 118 114 111 108 104
48 93 93 85 55 55 80 100 100 85 35 15 44 82 99 111 123 125 118 110 106 109 112 112 114 120 124 124 121 117 115 112 110 108 105 101 100 99 97 91 82 76 73 72 69 62 59 63 66 65 65 63 61 61 60 57 57 63 67 65 65 69 72 74 79 82 84 84 81 74 76 89 103 113 120 125 128 128 125 124 126 126 124 125 126 122
125 123 107 91 104 88 71 74 86 79 56 52 70 87 100 111 121 124 118 113 114 118 119 120 122 126 128 127 121 115 111 107 102 98 95 95 96 95 95 91 84 77 73 71 69 64 60 59 59 60 62 60 55 55 57 57 56 57 59 60 61 62 65 68 74 80 77 72 68 65 64 72 87 99 110 119 126 129 129 130 132 130 128 131 133 132
105 107 94 82 132 114 68 66 76 68 59 66 80 91 98 105 112 115 115 116 119 121 122 123 124 123 122 119 115 112 108 101 95 91 88 86 84 80 77 76 74 72 68 64 61 60 57 55 55 55 54 52 49 49 53 61 63 62 59 59 62 68 73 72 70 71 69 64 60 60 65 74 79 86 102 119 128 136 140 143 145 143 140 138 138 139
99 96 80 63 76 84 90 98 90 76 69 73 83 93 98 101 105 108 112 115 117 117 116 115 114 114 113 111 110 108 106 100 95 92 89 86 80 74 70 69 67 65 63 58 53 50 49 47 46 46 46 46 46 45 47 58 70 73 68 61 59 65 76 81 77 70 66 66 66 67 68 70 72 76 85 96 113 139 150 152 155 159 159 154 153 156
90 95 89 91 95 90 98 110 103 83 70 71 83 94 102 106 108 109 113 116 117 116 115 113 111 111 110 108 106 106 107 105 100 94 88 82 78 75 73 70 64 61 60 54 47 44 45 42 40 42 45 45 46 49 54 62 74 81 80 72 63 56 62 82 92 86 76 71 67 66 69 69 67 69 75 81 91 108 119 124 128 136 149 152 153 159
87 107 120 108 109 103 113 143 139 103 83 84 91 98 106 112 113 113 115 116 115 116 116 114 112 111 109 107 108 107 105 101 96 94 92 85 77 75 75 73 69 63 58 53 45 39 38 40 40 41 45 50 56 63 66 65 66 71 78 82 81 71 66 81 101 102 94 86 75 69 71 71 67 66 70 75 78 85 93 99 100 100 103 107 108 108
83 110 117 106 105 104 109 122 124 115 110 108 103 103 109 113 113 112 114 115 116 118 119 114 110 105 101 102 107 107 105 102 102 105 104 96 85 81 81 81 76 68 63 66 62 51 49 52 45 33 37 51 64 71 74 72 64 62 69 82 94 96 90 92 104 107 101 96 92 85 79 78 75 71 72 74 74 75 81 86 87 87 85 81 78 73